This demonstration page uses our WeatherBlox Daily Observations layout. Learn more.

Left ArrowRight Arrow

Hourly Observations for June 23, 2015

Temp ( °F °C ) Dew Point ( °F °C ) Humidity (%) Winds ( mph kmh ) Pressure ( in mb ) Visibility ( mi km ) Precip ( " mm )
12:51 am 00:51 Clear 88 31.1 30 -1.1 12 12 NW 13 20 29.75 1008 10 16 0.00 0.00
1:51 am 01:51 Clear 84 28.9 29 -1.7 13 13 NW 10 17 29.75 1008 10 16 0.00 0.00
2:51 am 02:51 Clear 76 24.4 66 18.9 72 72 WNW 10 17 29.93 1013 10 16 0.00 0.00
3:51 am 03:51 Clear 82 27.8 34 1.1 18 18 NW 10 17 29.76 1008 10 16 0.00 0.00
4:51 am 04:51 Clear 80 26.7 37 2.8 21 21 WNW 9 15 29.77 1008 10 16 0.00 0.00
5:51 am 05:51 Sunny 80 26.7 35 1.7 20 20 WSW 7 11 29.81 1010 10 16 0.00 0.00
6:51 am 06:51 Sunny 80 26.7 37 2.8 21 21 ESE 5 7 29.82 1010 10 16 0.00 0.00
7:51 am 07:51 Sunny 89 31.7 39 3.9 17 17 NW 15 24 29.81 1010 10 16 0.00 0.00
8:51 am 08:51 Sunny 93 33.9 43 6.1 18 18 WNW 17 28 29.81 1010 10 16 0.00 0.00
9:51 am 09:51 Sunny 97 36.1 41 5 14 14 NW 20 31 29.79 1009 10 16 0.00 0.00
10:51 am 10:51 Sunny 101 38.3 40 4.4 12 12 WNW 14 22 29.78 1008 10 16 0.00 0.00
11:51 am 11:51 Sunny 102 38.9 38 3.3 11 11 W 10 17 29.75 1008 10 16 0.00 0.00
12:51 pm 12:51 Sunny 104 40 37 2.8 10 10 W 12 19 29.72 1006 10 16 0.00 0.00
1:51 pm 13:51 Sunny 107 41.7 36 2.2 9 9 W 14 22 29.69 1005 10 16 0.00 0.00
2:51 pm 14:51 Sunny 106 41.1 34 1.1 8 8 W 13 20 29.66 1005 10 16 0.00 0.00
3:51 pm 15:51 Sunny 106 41.1 35 1.7 9 9 SSW 3 6 29.63 1004 10 16 0.00 0.00
4:51 pm 16:51 Sunny 105 40.6 36 2.2 9 9 Calm 29.62 1003 10 16 0.00 0.00
5:51 pm 17:51 Sunny 106 41.1 35 1.7 9 9 E 5 7 29.61 1003 10 16 0.00 0.00
6:51 pm 18:51 Sunny 104 40 39 3.9 11 11 WNW 14 22 29.63 1003 10 16 0.00 0.00
7:38 pm 19:38 Clear with Thunderstorms 100 37.8 38 3.3 12 12 NNE 15 24 29.56 1001 10 16 0.00 0.00
7:51 pm 19:51 Mostly Clear with Nearby Thunderstorms 94 34.4 51 10.6 23 23 ENE 15 24 29.69 1005 9 14 0.00 0.03
8:25 pm 20:25 Mostly Cloudy with Thunderstorms 93 34 45 7 19 19 SSE 14 22 29.68 1005 10 16 0.00 0.00
8:32 pm 20:32 Mostly Cloudy with Thunderstorms 94 34.4 44 6.7 18 18 S 13 20 29.65 1004 10 16 0.00 0.03
8:42 pm 20:42 Mostly Cloudy with Nearby Thunderstorms 90 32.2 50 10 25 25 SE 17 28 29.68 1005 10 16 0.00 0.03
8:49 pm 20:49 Mostly Cloudy 91 33 48 9 23 23 SE 15 24 29.65 1004 10 16 0.00 0.03
8:51 pm 20:51 Partly Cloudy 90 32.2 49 9.4 24 24 ESE 15 24 29.72 1006 10 16 0.00 0.03
9:51 pm 21:51 Cloudy with Light Rain 87 30.6 54 12.2 32 32 SSE 8 13 29.75 1008 10 16 0.00 0.03
10:51 pm 22:51 Partly Cloudy 88 31.1 51 10.6 28 28 undefined N/A 29.93 1014 10 16 0.00 0.03
11:51 pm 23:51 Clear 88 31.1 51 10.6 28 28 ESE 12 19 29.75 1007 10 16 0.00 0.00

Powered by AerisWeather